Weather History for Baudette, MN

Change the Weather History Date:

Sunday, December 9, 2012

  Actual Average Record
Temperature  
Mean Temperature 6 °F -  
Max Temperature 14 °F 22 °F 46 °F (1990)
Min Temperature -2 °F 4 °F -30 °F (1958)
Degree Days  
Heating Degree Days 59    
Moisture  
Dew Point 1 °F    
Average Humidity 83    
Maximum Humidity 88    
Minimum Humidity 70    
Precipitation  
Precipitation 0.00 in - - ()
Sea Level Pressure  
Sea Level Pressure 30.26 in    
Wind  
Wind Speed 9 mph (North)    
Max Wind Speed 14 mph    
Max Gust Speed -    
Visibility 8 miles    
Events Snow    
Averages and records for this station are not official NWS values.
T = Trace of Precipitation, MM = Missing Value Source: NWS Daily Summary

Daily Weather History Graph

Daily Weather History Graph

Search for Another Location

Airport:

Trip Planner

Search our weather history database for the weather conditions in past years. The results will help you decide how hot, cold, wet, or windy it might be!

Date:

Astronomy

Dec. 09, 2012 Rise Set
Actual Time 7:59 AM CST 4:22 PM CST
Civil Twilight 7:23 AM CST 4:59 PM CST
Nautical Twilight 6:42 AM CST 5:39 PM CST
Astronomical Twilight 6:04 AM CST 6:17 PM CST
Moon 3:17 AM CST (12/9) 1:43 PM CST (12/9)
Length of Visible Light 9h 36m
Length of Day
8h 22m
Waning Crescent, 18% of the Moon is Illuminated
Dec 9
Waning Crescent
Dec 13
New
Dec 19
First Quarter
Dec 28
Full
Jan 4
Last Quarter

Hourly Weather History & Observations

Time (CST) Temp. Windchill Dew Point Humidity Pressure Visibility Wind Dir Wind Speed Gust Speed Precip Events Conditions
12:15 AM 14.0 °F 2.9 °F 10.4 °F 86% 30.13 in 2.5 mi North 8.1 mph - 0.00 in Snow Light Snow
12:46 AM 14.0 °F 2.9 °F 10.4 °F 86% 30.14 in 4.0 mi NNE 8.1 mph - 0.00 in Snow Light Snow
12:53 AM 14.0 °F 2.9 °F 10.0 °F 84% 30.22 in 4.0 mi NNE 8.1 mph - 0.00 in Snow Light Snow
1:26 AM 14.0 °F 3.9 °F 10.4 °F 86% 30.15 in 2.5 mi North 6.9 mph - 0.00 in Snow Light Snow
1:53 AM 12.9 °F 1.6 °F 10.0 °F 88% 30.23 in 2.5 mi North 8.1 mph - 0.00 in Snow Light Snow
2:50 AM 12.2 °F 0.7 °F 8.6 °F 85% 30.17 in 3.0 mi North 8.1 mph - 0.00 in Snow Light Snow
2:53 AM 12.9 °F -0.2 °F 9.0 °F 84% 30.25 in 4.0 mi North 10.4 mph - 0.00 in Snow Light Snow
3:53 AM 12.0 °F -2.0 °F 9.0 °F 88% 30.25 in 5.0 mi North 11.5 mph - 0.00 in Snow Light Snow
4:53 AM 10.9 °F -3.4 °F 7.0 °F 84% 30.26 in 10.0 mi North 11.5 mph - 0.00 in   Overcast
5:53 AM 10.0 °F -4.5 °F 6.1 °F 84% 30.28 in 10.0 mi North 11.5 mph - 0.00 in   Overcast
6:53 AM 7.0 °F -8.3 °F 3.0 °F 84% 30.30 in 10.0 mi North 11.5 mph - N/A   Clear
7:53 AM 3.9 °F -12.2 °F 1.0 °F 88% 30.32 in 10.0 mi North 11.5 mph - N/A   Partly Cloudy
8:53 AM 1.9 °F -13.8 °F -0.9 °F 88% 30.35 in 10.0 mi North 10.4 mph - N/A   Scattered Clouds
9:53 AM -0.0 °F -15.3 °F -4.0 °F 83% 30.35 in 10.0 mi NNW 9.2 mph - N/A   Clear
10:53 AM 3.0 °F -11.5 °F -2.0 °F 80% 30.36 in 10.0 mi North 9.2 mph - N/A   Clear
11:53 AM 3.0 °F -10.5 °F -2.9 °F 76% 30.34 in 10.0 mi NNW 8.1 mph - N/A   Clear
12:53 PM 5.0 °F -11.6 °F -2.9 °F 70% 30.32 in 10.0 mi NNW 12.7 mph - N/A   Clear
1:53 PM 5.0 °F -11.6 °F -2.9 °F 70% 30.30 in 10.0 mi NNW 12.7 mph - N/A   Clear
2:53 PM 5.0 °F -10.8 °F -2.0 °F 73% 30.28 in 10.0 mi NNW 11.5 mph - N/A   Clear
3:53 PM 3.9 °F -13.7 °F -2.0 °F 76% 30.29 in 10.0 mi NNW 13.8 mph - N/A   Clear
4:53 PM 1.0 °F -11.7 °F -2.9 °F 83% 30.28 in 10.0 mi NNW 6.9 mph - N/A   Clear
5:53 PM -0.9 °F -15.3 °F -4.0 °F 87% 30.29 in 10.0 mi NNW 8.1 mph - N/A   Clear
6:53 PM -2.0 °F -15.4 °F -5.1 °F 87% 30.30 in 10.0 mi NNW 6.9 mph - N/A   Clear
7:37 PM -0.4 °F -14.7 °F -5.8 °F 78% 30.19 in 10.0 mi NNW 8.1 mph - N/A   Mostly Cloudy
7:53 PM -0.9 °F -15.3 °F -4.0 °F 87% 30.28 in 10.0 mi NNW 8.1 mph - N/A   Overcast
8:53 PM -0.0 °F -14.2 °F -4.0 °F 83% 30.27 in 10.0 mi NNW 8.1 mph - N/A   Overcast
9:53 PM -0.0 °F -15.3 °F -2.9 °F 88% 30.25 in 10.0 mi North 9.2 mph - N/A   Overcast
10:53 PM -0.0 °F -7.9 °F -2.9 °F 88% 30.22 in 10.0 mi North 3.5 mph - N/A   Overcast
11:53 PM -0.9 °F -12.7 °F -4.0 °F 87% 30.20 in 10.0 mi North 5.8 mph - N/A   Overcast